AirNav   ATP
 
 1351 users online  

NJ77 Warren County Public Safety Department Heliport
Franklin, New Jersey, USA


FAA INFORMATION EFFECTIVE 09 NOVEMBER 2017

Location

FAA Identifier: NJ77
Lat/Long: 40-44-27.5000N / 075-01-17.4000W
40-44.458333N / 075-01.290000W
40.7409722 / -75.0215000
(estimated)
Elevation: 411 ft. / 125 m (estimated)
From city: 2 miles W of FRANKLIN, NJ
Time zone: UTC -5 (UTC -4 during Daylight Saving Time)
Zip code: 07882

Heliport Operations

Heliport use: Private use. Permission required prior to landing
Activation date: 10/2008
Control tower: no
ARTCC: NEW YORK CENTER
FSS: MILLVILLE FLIGHT SERVICE STATION
Attendance: CONTINUOUS
Wind indicator: yes
Segmented circle: no

Heliport Communications

WX ASOS at SMQ (17 nm SE): 120.6 (908-722-2139)
WX ASOS at ABE (20 nm W): PHONE 610-266-3579

Nearby radio navigation aids

VOR radial/distance  VOR name  Freq  Var
BWZr260/9.7BROADWAY VOR/DME114.2011W
SBJr317/15.9SOLBERG VOR/DME112.9010W
STWr215/16.8STILLWATER VOR/DME109.6011W
FJCr098/19.7ALLENTOWN VORTAC117.5010W
SAXr239/29.4SPARTA VORTAC115.7011W
ARDr360/29.7YARDLEY VOR/DME108.2010W
ETXr081/31.6EAST TEXAS VOR/DME110.2009W
PNEr009/(39.5)NORTH PHILADELPHIA VOR112.0010W
PTWr047/39.7POTTSTOWN VORTAC116.5009W

 
NDB name  Hdg/Dist  Freq  Var  ID
CHATHAM283/26.925413WCAT -.-. .- -
AMBLER030/38.827512WING .. -. --.

Heliport Services

Runway Information

Helipad H1

Dimensions: 100 x 100 ft. / 30 x 30 m
Surface: turf
Traffic pattern: leftleft

Heliport Ownership and Management from official FAA records

Ownership: Privately-owned
Owner: WARREN COUNTY
1024 ROUTE 57
WASHINGTON, NJ 07882
Phone 908-835-2051
Manager: FRANK WHEATLEY
1024 ROUTE 57
WASHINGTON, NJ 07882
Phone 908-835-2051

Additional Remarks

A52-H1 H1 HAS 30 FT TREES 50 FT S AND 185 FT TWR 400 SSE OF PAD.

Instrument Procedures

There are no published instrument procedures at NJ77.

Some nearby airports with instrument procedures:

N85 - Alexandria Airport (9 nm S)
N43 - Braden Airpark (10 nm W)
N40 - Sky Manor Airport (11 nm S)
1N7 - Blairstown Airport (14 nm N)
N51 - Solberg-Hunterdon Airport (16 nm SE)
KSMQ - Somerset Airport (17 nm SE)
N53 - Stroudsburg-Pocono Airport (19 nm N)
KABE - Lehigh Valley International Airport (20 nm W)
 
Loc | Ops | Rwys | IFR | FBO | Links
Com | Nav | Svcs | Stats | Notes


 
Aerial photo
No photo
 
Sectional chart

 
Airport distance calculator
Flying to Warren County Public Safety Department Heliport? Find the distance to fly.

From to NJ77

Sunrise and sunset
Times for 20-Nov-2017
 Local
(UTC-5)
 Zulu
(UTC)
Morning civil twilight06:2411:24
Sunrise06:5411:54
Sunset16:3821:38
Evening civil twilight17:0722:07

Current date and time
Zulu (UTC)  20-Nov-2017 21:13:53
Local (UTC-5)  20-Nov-2017 16:13:53
 
METAR
KSMQ 
18nm SE 
ASOS 120.60 908-722-2139
202053Z AUTO VRB03KT 10SM CLR 07/M04 A3008 RMK AO2 SLP186 T00721039 53014
KABE 
20nm W 
202051Z 23017G23KT 10SM CLR 07/M04 A3008 RMK AO2 SLP189 T00721044 53010
K12N 
21nm NE 
202054Z AUTO 24008G15KT 200V300 06/M04 A3005 RMK AO1 SLP182 T00611044 52012
KXLL 
24nm SW 
202055Z AUTO 24011G15KT 10SM CLR 07/M03 A3011 RMK AO2
KCKZ 
24nm SW 
202055Z AUTO 25007G14KT 10SM CLR 06/M05 A3010 RMK AO2
KUKT 
25nm SW 
202055Z AUTO 25006KT 10SM CLR 07/M05 A3010 RMK AO1
KDYL 
25nm S 
202054Z AUTO 25008G15KT 10SM CLR 07/M05 A3009 RMK AO2 SLP195 T00671050 53010
KMMU 
28nm E 
201945Z 30012G22KT 10SM SCT060 08/M06 A3004
KMPO 
29nm NW 
202053Z AUTO 26010G16KT 10SM CLR 02/M04 A2999 RMK AO2 SLP177 T00221044 53011
KTTN 
29nm S 
ASOS 133.70 609-538-8690
202053Z 25009G17KT 10SM CLR 07/M04 A3011 RMK AO2 SLP190 T00721044 53013
TAF
KABE 
20nm W 
201737Z 2018/2118 26012G25KT P6SM SCT050 FM202100 25007KT P6SM SKC FM210200 VRB03KT P6SM SKC FM211300 VRB03KT P6SM SKC FM211600 21011G19KT P6SM SKC
NOTAMs
Click for the latest NOTAMs
NOTAMs are issued by the DoD/FAA and will open in a separate window not controlled by AirNav.

 

 
 

Would you like to see your business listed on this page?

 If your business provides an interesting product or service to pilots, flight crews, aircraft, or users of the Warren County Public Safety Department Heliport, you should consider listing it here.  To start the listing process, click on the button below
 
Add a business
 

Other Pages about Warren County Public Safety Department Heliport

Update a link
 
Copyright © AirNav, LLC. All rights reserved. Privacy Policy  Contact